Regional Weather Roundup
Issued by NWS

Home | Current Version | Previous Version | Graphics & Text | Print | Product List | Glossary On
Versions: 1 2 3 4 5 6 7 8 9 10 11 12 13 14 15 16 17 18 19 20 21 22 23 24 25 26 27
000
ASUS45 KSLC 240410
RWRUT

UTAH REGIONAL WEATHER ROUNDUP
NATIONAL WEATHER SERVICE SALT LAKE CITY UT
1000 PM MDT SAT JUL 23 2016

UTZ001>011-023>025-240500-

NORTHERN UTAH

CITY           SKY/WX    TMP DP  RH WIND       PRES   REMARKS
BRIGHAM CITY     N/A     78  31  18 N6        30.04R
HILL AFB       CLEAR     76  27  15 E8        30.07R
LOGAN          CLEAR     66  45  46 N8        30.07R
OGDEN          CLEAR     77  32  19 S9        30.03S
PROVO AIRPORT  CLEAR     79  48  34 NW12      30.04R
SALT LAKE CITY PTCLDY    82  28  14 S5        30.02R
VERNAL         CLEAR     79  31  17 NE6       30.07R
WENDOVER       CLEAR     81  28  15 W7        30.03R
HEBER CITY     CLEAR     73  28  19 NE3       30.12R

$$

UTZ012>022-026-027-240500-

SOUTHERN/CENTRAL UTAH

CITY           SKY/WX    TMP DP  RH WIND       PRES   REMARKS
BLANDING       PTCLDY    79  40  25 N7        30.19R
BRYCE CANYON   PTCLDY    64  35  34 SW9       30.28R
CEDAR CITY     CLEAR     82  29  14 S10       30.09R
DELTA          CLEAR     82  27  13 N16G22    30.01R
MILFORD        CLEAR     87  25  10 NW13      30.01R
MOAB/CYNLANDS  PTCLDY    86  40  19 SE6       29.97R
PRICE          PTCLDY    76  25  15 NE7       30.11R
ST GEORGE      CLEAR     97  34  11 S5        29.86R HX  91

$$

REGIONAL REPORTS     COLORADO/ARIZONA

CITY           SKY/WX    TMP DP  RH WIND       PRES   REMARKS
CRAIG, CO      CLOUDY    75  38  26 N14G23    30.20R
GRAND JUNCTION PTCLDY    89  38  16 NE13      30.02R
RIFLE          CLEAR     75  38  26 S7        30.12R
MONTROSE       CLOUDY    77  44  30 SE10      30.13R
CORTEZ         CLOUDY    72  43  35 E9        30.13R
PAGE, AZ       PTCLDY    96  35  11 W5        29.94R HX  91
GRAND CANYON   CLOUDY    76  48  37 S6        30.24R
KINGMAN        CLEAR     93  48  21 SW14      29.94R
FLAGSTAFF      LGT RAIN  77  40  26 S10G28    30.31R

$$

REGIONAL REPORTS    NEVADA/IDAHO/WYOMING

CITY           SKY/WX    TMP DP  RH WIND       PRES   REMARKS
LAS VEGAS, NV  CLEAR    104  28   7 SW10      29.73R HX  97
ELY            CLEAR     77  16  10 NW8       30.15R
ELKO           CLEAR     75  18  11 CALM      30.10R
POCATELLO, ID  CLEAR     70  29  21 S13       30.10R
BURLEY         CLEAR     63  42  46 SW8       30.08R
EVANSTON, WY   CLEAR     66  19  16 W9        30.27R
ROCK SPRINGS   CLEAR     69  16  13 NW6       30.23R
KEMMERER         N/A     61  28  29 NW9       30.28R

$$




USA.gov is the U.S. government's official web portal to all federal, state and local government web resources and services.